Powrót do katalogu

CZ-6A DEB

AktywnyPO
NORAD 63393·DEBRIS·🇨🇳 China

Wystrzelony Aug 6, 2024 z Taiyuan Satellite Launch Center

Loading…

Następne Przeloty (najbliższe 24 godziny)

TLE

ŚwieżeSource: Space-Track

Epoka: Sep 14, 2026, 11:48 UTC

1 63393U 24140ADQ 26257.49168479  .00000414  00000-0  20421-3 0  9996
2 63393  89.0195 267.5919 0068299 273.2832  86.0543 14.14587989108234

Śledź CZ-6A DEB w czasie rzeczywistym z AllMySat

Download on the App Store